AirNav   Pilot Hours Calculator
 
 882 users online  

KVLL Oakland/Troy Airport
Troy, Michigan, USA

GOING TO TROY?


FAA INFORMATION EFFECTIVE 10 OCTOBER 2019

Location

FAA Identifier: VLL
Lat/Long: 42-32-34.6000N 083-10-40.4000W
42-32.576667N 083-10.673333W
42.5429444,-83.1778889
(estimated)
Elevation: 727.2 ft. / 221.7 m (surveyed)
Variation: 06W (1995)
From city: 2 miles E of TROY, MI
Time zone: UTC -4 (UTC -5 during Standard Time)
Zip code: 48084

Airport Operations

Airport use: Open to the public
Control tower: no
ARTCC: CLEVELAND CENTER
FSS: LANSING FLIGHT SERVICE STATION
NOTAMs facility: VLL (NOTAM-D service available)
Attendance: 0800-1800
Pattern altitude: 1727.2 ft. MSL
Wind indicator: lighted
Segmented circle: no
Lights: ACTVT MIRL RY 09/27 & PAPI RYS 09 & 27 - CTAF.
Beacon: white-green (lighted land airport)
Operates sunset to sunrise.
Landing fee: yes

Airport Communications

CTAF/UNICOM: 123.05
WX AWOS-3: 119.475 (248-288-4649)
DETROIT APPROACH: 134.3
DETROIT DEPARTURE: 134.3
WX ASOS at DET (11 nm SE): PHONE 313-371-9696
WX ASOS at PTK (13 nm NW): 125.025 (248-886-8551)

Nearby radio navigation aids

VOR radial/distance  VOR name  Freq  Var
SVMr069/20.1SALEM VORTAC114.3003W
DXOr029/21.5DETROIT VOR/DME113.4006W
YQGr325/23.4WINDSOR VOR/DME113.8006W
CRLr026/32.2CARLETON VOR/DME115.7003W
FNTr141/35.7FLINT VORTAC116.9006W

 
NDB name  Hdg/Dist  Freq  Var  ID
GROSSE ILE005/26.541907WRYS .-. -.-- ...

Airport Services

Fuel available: 100LL JET-A
Parking: tiedowns
Airframe service: NONE
Powerplant service: NONE

Runway Information

Runway 9/27

Dimensions: 3549 x 60 ft. / 1082 x 18 m
Surface: asphalt, in fair condition
Runway edge lights: medium intensity
RUNWAY 9  RUNWAY 27
Latitude: 42-32.575973N42-32.578848N
Longitude: 083-11.068925W083-10.278788W
Elevation: 727.0 ft.701.0 ft.
Traffic pattern: leftleft
Runway heading: 096 magnetic, 090 true276 magnetic, 270 true
Markings: nonprecision, in good conditionnonprecision, in good condition
Visual slope indicator: 2-light PAPI on right (3.75 degrees glide path)2-light PAPI on left (3.75 degrees glide path)
Runway end identifier lights: nono
Touchdown point: yes, no lightsyes, no lights
Obstructions: 19 ft. tree, 207 ft. from runway, 137 ft. right of centerline30 ft. tree, 200 ft. from runway, 125 ft. left of centerline

Airport Ownership and Management from official FAA records

Ownership: Publicly-owned
Owner: OAKLAND COUNTY
6500 HIGHLAND ROAD
WATERFORD, MI 48327
Phone (248) 288-6100
ARPT PHONE 248-666-3900
Manager: CHERYL BUSH
6500 HIGHLAND RD
WATERFORD, MI 48327
Phone 248-666-3900

Airport Operational Statistics

Aircraft based on the field: 120
Single engine airplanes: 109
Multi engine airplanes: 7
Helicopters: 3
Ultralights: 1
    
Aircraft operations: avg 82/day *
50% transient general aviation
50% local general aviation
* for 12-month period ending 31 December 2019

Additional Remarks

DEER AND BIRDS ON & INVOF ARPT.
RY 09 +3 FT BERM 316 FT FM THLD.
NO TGL OR PRACTICE TFC PATTERNS.
FOR CD CTC DETROIT APCH AT 800-499-8181.

Instrument Procedures

NOTE: All procedures below are presented as PDF files. If you need a reader for these files, you should download the free Adobe Reader.

NOT FOR NAVIGATION. Please procure official charts for flight.
FAA instrument procedures published for use from 10 October 2019 at 0901Z to 7 November 2019 at 0900Z.

 
STARs - Standard Terminal Arrivals
FOREY TWO (RNAV) **CHANGED**   download (153KB)
OKLND ONE (RNAV)   download (129KB)
PETTE TWO (RNAV) **CHANGED**   download (193KB)
RRALF TWO (RNAV) **CHANGED**   download (155KB)
 
IAPs - Instrument Approach Procedures
RNAV (GPS) RWY 09   download (161KB)
 
Departure Procedures
BARII TWO (RNAV)   download (139KB)
CCOBB TWO (RNAV)   download (183KB)
CLVIN TWO (RNAV)   download (153KB)
HHOWE TWO (RNAV)   download (169KB)
KAYLN TWO (RNAV)   download (149KB)
LIDDS TWO (RNAV)   download (164KB)
MIGGY TWO (RNAV)   download (183KB)
PAVYL TWO (RNAV)   download (158KB)
SNDRS TWO (RNAV)   download (195KB)
TRMML THREE (RNAV) **CHANGED**   download (144KB)
ZETTR TWO (RNAV)   download (184KB)
NOTE: Special Take-Off Minimums/Departure Procedures apply   download (125KB)

Other nearby airports with instrument procedures:

KDET - Coleman A Young Municipal Airport (11 nm SE)
KPTK - Oakland County International Airport (13 nm NW)
KMTC - Selfridge Air National Guard Base (16 nm E)
1D2 - Canton-Plymouth-Mettetal Airport (17 nm SW)
57D - Ray Community Airport (17 nm NE)
D98 - Romeo State Airport (18 nm NE)
Y47 - Oakland Southwest Airport (20 nm W)
 
Loc | Ops | Rwys | IFR | FBO | Links
Com | Nav | Svcs | Stats | Notes
Area around KVLL (Oakland/Troy Airport)
 
Road maps at: MapQuest Bing Google
 
Aerial photo
WARNING: Photo may not be current or correct
Aerial photo of KVLL (Oakland/Troy Airport)
Photo by Jeff Schuster
Photo taken 29-Jun-2014
looking west.

Do you have a better or more recent aerial photo of Oakland/Troy Airport that you would like to share? If so, please send us your photo.

 
Sectional chart

 
Airport distance calculator
Flying to Oakland/Troy Airport? Find the distance to fly.

From to KVLL

Sunrise and sunset
Times for 18-Oct-2019
 Local
(UTC-4)
 Zulu
(UTC)
Morning civil twilight07:2211:22
Sunrise07:5011:50
Sunset18:4622:46
Evening civil twilight19:1423:14

Current date and time
Zulu (UTC)  18-Oct-2019 23:34:45
Local (UTC-4)  18-Oct-2019 19:34:45
 
METAR
KVLL 182318Z AUTO 12003KT 10SM CLR 11/03 A3005 RMK AO2 T01100033
KDET 
11nm SE 
182253Z 12005KT 10SM CLR 09/03 A3003 RMK AO2 SLP174 T00940028
KPTK 
13nm NW 
182253Z 00000KT 10SM BKN200 10/02 A3001 RMK AO2 SLP168 T01000022
KMTC 
17nm E 
182256Z 16003KT 10SM BKN250 08/05 A3002 RMK AO2A SLP175 T00760045 $
CYQG 
19nm SE 
182300Z AUTO 18005KT 9SM CLR 08/04 A3005 RMK SLP181
KDTW 
20nm S 
182253Z 17006KT 10SM BKN220 10/03 A3004 RMK AO2 SLP176 T01000033
TAF
KDET 
11nm SE 
181739Z 1818/1918 15004KT P6SM SCT250 FM190300 15004KT P6SM SKC
KPTK 
13nm NW 
181732Z 1818/1918 16005KT P6SM SCT250 FM190300 VRB03KT P6SM SKC
KMTC 
17nm E 
181700Z 1817/1923 31006KT 9999 SKC QNH3001INS WND 15006KT AFT 1820 BECMG 1908/1909 VRB06KT 4800 BR FEW010 QNH2994INS BECMG 1916/1917 15009KT 9999 NSW FEW250 QNH2988INS TX12/1818Z TN02/1912Z
CYQG 
19nm SE 
181739Z 1818/1918 VRB03KT P6SM FEW030 BECMG 1819/1821 17007KT BECMG 1902/1904 VRB03KT FM190800 VRB03KT P6SM SKC PROB30 1908/1914 1SM BR FM191500 18007KT P6SM FEW030 RMK FCST BASED ON AUTO OBS. NXT FCST BY 190000Z
KDTW 
20nm S 
182035Z 1821/1924 VRB03KT P6SM SCT250 FM190300 12004KT P6SM SKC
NOTAMs
Click for the latest NOTAMs
NOTAMs are issued by the DoD/FAA and will open in a separate window not controlled by AirNav.

 

 
 

FBO, Fuel Providers, and Aircraft Ground Support

  
 Business Name 
 
 Contact 
 
 Services / Description 
 
Fuel Prices
 
Comments
  
JDS Pump-N-Go 248-288-6100
[email]
Aviation fuel, Aircraft parking (ramp or tiedown), Hangar leasing / sales

More info about JDS Pump-N-Go
Avfuel
100LL Jet A
SS $5.40 $4.51 
 Updated 18-Oct-2019
 
   write
SS=Self service
Update Fuel Prices
 

Would you like to see your business listed on this page?

 If your business provides an interesting product or service to pilots, flight crews, aircraft, or users of the Oakland/Troy Airport, you should consider listing it here.  To start the listing process, click on the button below
 
Add a business
 

Other Pages about Oakland/Troy Airport

Oakland/Troy Airport Website
Page from the Michigan Airport Directory (PDF)
 
Update a link
 
Copyright © AirNav, LLC. All rights reserved. Privacy Policy  Contact